201P/LONEOS (2002)

Japanese version
Home page
Total 6,336 html files since Dec. 4, 1995
Updated on September 16, 2008

---------------------------------------------------------------------

* Profile

Designation 201P/2001 R1
Discovery Date September 10, 2001
Magnitude 17.6 mag
Discoverer Lowell Observatory Near-Earth Object Search

* Orbital Elements

Epoch 2002 Feb. 15.0 TT = JDT 2452320.5
T 2002 Feb. 17.57306 TT                                 MPC
q   1.3605080            (2000.0)            P               Q
n   0.15201658     Peri.   24.73672     +0.49843564     -0.86400240
a   3.4770325      Node    35.48768     +0.77359776     +0.40623500
e   0.6087158      Incl.    7.03953     +0.39129071     +0.29744408
P   6.48

* Finding Charts

* Magnitudes Graph

        m1 = 14.0 + 5 log d + 10.0 log r

---------------------------------------------------------------------

The orbital elements are published on M.P.E.C. 2008-R76.
The charts are made with StellaNavigator Ver.2.0 for Windows (AstroArts / ASCII).
The magnitudes graphs are made with Comet for Windows.

---------------------------------------------------------------------

Copyright(C) 1995-2008 Seiichi Yoshida (comet@aerith.net). All rights reserved.